Weather History for Shungnak AP, Shungnak, AK, AK

Change the Weather History Date:

Sunday, February 16, 2014

  Actual Average (PAFM) Record (PAFM)
Temperature  
Mean Temperature -2 °F -  
Max Temperature 3 °F 7 °F 33 °F (2006)
Min Temperature -9 °F 0 °F -40 °F (1988)
Degree Days  
Heating Degree Days 68    
Moisture  
Dew Point -7 °F    
Average Humidity 81    
Maximum Humidity 85    
Minimum Humidity 72    
Precipitation  
Precipitation 0.04 in - - ()
Sea Level Pressure  
Sea Level Pressure 29.25 in    
Wind  
Wind Speed 3 mph (SSE)    
Max Wind Speed 7 mph    
Max Gust Speed -    
Visibility 5 miles    
Events Snow    
Averages and records for this station are not official NWS values.
T = Trace of Precipitation, MM = Missing Value Source: NWS Daily Summary

Daily Weather History Graph

Daily Weather History Graph

Search for Another Location

Airport:

Trip Planner

Search our weather history database for the weather conditions in past years. The results will help you decide how hot, cold, wet, or windy it might be!

Date:

Astronomy

Feb. 16, 2014 Rise Set
Actual Time 9:34 AM AKST 5:52 PM AKST
Civil Twilight 8:36 AM AKST 6:50 PM AKST
Nautical Twilight 7:34 AM AKST 7:52 PM AKST
Astronomical Twilight 6:33 AM AKST 8:54 PM AKST
Moon 9:16 PM AKST (2/16) 9:05 AM AKST (2/16)
Length of Visible Light 10h 13m
Length of Day
8h 18m
Full, 97% of the Moon is Illuminated
Feb 16
Full
Feb 22
Last Quarter
Feb 28
New
Mar 8
First Quarter
Mar 16
Full

Hourly Weather History & Observations

Time (AKST) Temp. Windchill Dew Point Humidity Pressure Visibility Wind Dir Wind Speed Gust Speed Precip Events Conditions
12:04 AM -7.6 °F -20.6 °F -11.2 °F 84% 29.07 in 3.0 mi East 5.8 mph - 0.00 in Snow Light Snow
12:49 AM -5.8 °F -18.4 °F -9.4 °F 84% 29.07 in 2.5 mi SE 5.8 mph - 0.00 in Snow Light Snow
12:52 AM -5.8 °F -16.7 °F -9.4 °F 84% 29.07 in 2.5 mi ESE 4.6 mph - 0.00 in Snow Light Snow
12:57 AM -6.0 °F -18.6 °F -9.9 °F 83% 29.18 in 2.0 mi SE 5.8 mph - 0.00 in Snow Light Snow
1:12 AM -5.8 °F -18.4 °F -9.4 °F 84% 29.08 in 3.0 mi SE 5.8 mph - 0.00 in Snow Light Snow
1:15 AM -5.8 °F -16.7 °F -9.4 °F 84% 29.08 in 4.0 mi SSE 4.6 mph - 0.00 in Snow Light Snow
1:24 AM -5.8 °F -14.5 °F -9.4 °F 84% 29.07 in 2.5 mi SSE 3.5 mph - 0.00 in Snow Light Snow
1:57 AM -5.1 °F -13.6 °F -9.0 °F 83% 29.19 in 2.0 mi South 3.5 mph - 0.00 in Snow Light Snow
2:45 AM -4.0 °F - -9.4 °F 78% 29.08 in 3.0 mi Calm Calm - 0.00 in Snow Light Snow
2:57 AM -4.0 °F -12.4 °F -9.0 °F 79% 29.20 in 3.0 mi ESE 3.5 mph - 0.00 in Snow Light Snow
3:15 AM -4.0 °F -12.4 °F -9.4 °F 78% 29.09 in 2.0 mi SE 3.5 mph - 0.00 in Snow Light Snow
3:18 AM -4.0 °F - -9.4 °F 78% 29.09 in 1.8 mi Calm Calm - 0.00 in Snow Light Snow
3:57 AM -4.0 °F - -9.0 °F 79% 29.19 in 1.8 mi Calm Calm - 0.00 in Snow Light Snow
4:07 AM -4.0 °F - -9.4 °F 78% 29.09 in 2.0 mi Calm Calm - 0.00 in Snow Light Snow
4:24 AM -4.0 °F - -7.6 °F 85% 29.10 in 3.0 mi Calm Calm - 0.00 in Snow Light Snow
4:28 AM -4.0 °F - -7.6 °F 85% 29.09 in 3.0 mi Calm Calm - 0.00 in Snow Light Snow
4:42 AM -4.0 °F - -7.6 °F 85% 29.10 in 2.5 mi Calm Calm - 0.00 in Snow Light Snow
4:54 AM -4.0 °F - -7.6 °F 85% 29.10 in 3.0 mi Calm Calm - 0.00 in Snow Light Snow
4:57 AM -4.0 °F -12.4 °F -8.0 °F 83% 29.21 in 3.0 mi West 3.5 mph - 0.00 in Snow Light Snow
5:57 AM -2.9 °F - -8.0 °F 79% 29.23 in 7.0 mi Calm Calm - 0.00 in Snow Light Snow
6:01 AM -2.2 °F - -7.6 °F 78% 29.12 in 8.0 mi Calm Calm - 0.00 in Snow Light Snow
6:08 AM -2.2 °F - -7.6 °F 78% 29.13 in 8.0 mi Calm Calm - 0.00 in Snow Light Snow
6:13 AM -2.2 °F - -7.6 °F 78% 29.12 in 7.0 mi Calm Calm - 0.01 in Snow Light Snow
6:57 AM -2.9 °F - -7.1 °F 82% 29.24 in 6.0 mi Calm Calm - 0.01 in Snow Light Snow
7:57 AM -2.9 °F -13.3 °F -8.0 °F 79% 29.25 in 7.0 mi NE 4.6 mph - 0.00 in Snow Light Snow
8:20 AM -2.2 °F - -7.6 °F 78% 29.15 in 8.0 mi Calm Calm - 0.00 in Snow Light Snow
8:40 AM -2.2 °F - -7.6 °F 78% 29.16 in 9.0 mi Calm Calm - 0.00 in Snow Light Snow
8:57 AM -2.9 °F -13.3 °F -8.0 °F 79% 29.28 in 9.0 mi SSE 4.6 mph - 0.00 in Snow Light Snow
9:27 AM -2.2 °F - -7.6 °F 78% 29.17 in 9.0 mi Calm Calm - 0.00 in Snow Light Snow
9:30 AM -2.2 °F -10.4 °F -7.6 °F 78% 29.17 in 9.0 mi South 3.5 mph - 0.00 in Snow Light Snow
9:57 AM -2.9 °F - -7.1 °F 82% 29.28 in 9.0 mi Calm Calm - 0.00 in Snow Light Snow
10:44 AM -2.2 °F - -7.6 °F 78% 29.19 in 3.0 mi Calm Calm - 0.00 in Snow Light Snow
10:52 AM -2.2 °F - -5.8 °F 85% 29.20 in 2.5 mi Calm Calm - 0.00 in Snow Light Snow
10:57 AM -2.0 °F - -6.0 °F 83% 29.31 in 2.5 mi Calm Calm - 0.00 in Snow Light Snow
11:24 AM -2.2 °F -10.4 °F -5.8 °F 85% 29.22 in 1.8 mi East 3.5 mph - 0.00 in Snow Light Snow
11:57 AM -0.9 °F -8.9 °F -6.0 °F 79% 29.34 in 1.2 mi East 3.5 mph - 0.00 in Snow Light Snow
12:33 PM -0.4 °F - -5.8 °F 78% 29.24 in 2.0 mi Calm Calm - 0.00 in Snow Light Snow
12:41 PM -0.4 °F - -5.8 °F 78% 29.25 in 1.5 mi Calm Calm - 0.00 in Snow Light Snow
12:57 PM -0.0 °F - -5.1 °F 79% 29.36 in 1.8 mi Calm Calm - 0.01 in Snow Light Snow
1:08 PM 1.4 °F - -4.0 °F 78% 29.26 in 2.0 mi Calm Calm - 0.01 in Snow Light Snow
1:41 PM 1.4 °F - -4.0 °F 78% 29.27 in 3.0 mi Calm Calm - 0.01 in Snow Light Snow
1:57 PM 1.0 °F - -4.0 °F 79% 29.38 in 3.0 mi Calm Calm - 0.01 in Snow Light Snow
2:00 PM 1.4 °F -6.2 °F -4.0 °F 78% 29.27 in 2.5 mi West 3.5 mph - 0.00 in Snow Light Snow
2:10 PM 1.4 °F - -4.0 °F 78% 29.28 in 1.8 mi Calm Calm - 0.00 in Snow Light Snow
2:39 PM 1.4 °F - -4.0 °F 78% 29.28 in 2.0 mi Calm Calm - 0.01 in Snow Light Snow
2:53 PM 1.4 °F - -4.0 °F 78% 29.29 in 3.0 mi Calm Calm - 0.01 in Snow Light Snow
2:57 PM 1.9 °F - -4.0 °F 76% 29.39 in 3.0 mi Calm Calm - 0.01 in Snow Light Snow
3:02 PM 3.2 °F - -4.0 °F 72% 29.29 in 2.5 mi Calm Calm - 0.00 in Snow Light Snow
3:10 PM 1.4 °F -6.2 °F -5.8 °F 72% 29.29 in 3.0 mi South 3.5 mph - 0.00 in Snow Light Snow
3:27 PM 1.4 °F -6.2 °F -4.0 °F 78% 29.29 in 9.0 mi WSW 3.5 mph - 0.00 in Snow Light Snow
3:57 PM -0.0 °F - -5.1 °F 79% 29.40 in 9.0 mi Calm Calm - 0.00 in Snow Light Snow
4:57 PM -0.0 °F - -5.1 °F 79% 29.43 in 9.0 mi Calm Calm - 0.00 in Snow Light Snow
5:57 PM -2.0 °F - -6.0 °F 83% 29.46 in 9.0 mi Calm Calm - 0.00 in Snow Light Snow
6:24 PM -2.2 °F - -5.8 °F 85% 29.36 in 3.0 mi Calm Calm - 0.00 in Snow Light Snow
6:30 PM -2.2 °F - -5.8 °F 85% 29.36 in 2.5 mi Calm Calm - 0.00 in Snow Light Snow
6:40 PM -2.2 °F - -5.8 °F 85% 29.36 in 3.0 mi Calm Calm - 0.00 in Snow Light Snow
6:57 PM -2.0 °F - -6.0 °F 83% 29.47 in 3.0 mi Calm Calm - 0.00 in Snow Light Snow
7:57 PM -2.9 °F -13.3 °F -7.1 °F 82% 29.48 in 5.0 mi South 4.6 mph - 0.00 in Snow Light Snow
8:57 PM -4.0 °F -12.4 °F -8.0 °F 83% 29.49 in 9.0 mi SW 3.5 mph - 0.00 in Snow Light Snow
9:03 PM -4.0 °F - -7.6 °F 85% 29.39 in 8.0 mi Calm Calm - 0.00 in Snow Light Snow
9:18 PM -4.0 °F -12.4 °F -7.6 °F 85% 29.39 in 7.0 mi SE 3.5 mph - 0.00 in Snow Light Snow
9:53 PM -5.8 °F -16.7 °F -9.4 °F 84% 29.40 in 8.0 mi SSW 4.6 mph - 0.00 in Snow Light Snow
9:57 PM -6.0 °F - -9.9 °F 83% 29.50 in 8.0 mi Calm Calm - 0.00 in Snow Light Snow
10:57 PM -8.0 °F -19.2 °F -11.9 °F 83% 29.52 in 9.0 mi SSW 4.6 mph - 0.00 in   Clear
11:57 PM -9.0 °F -23.8 °F -14.1 °F 79% 29.54 in 10.0 mi SSW 6.9 mph - N/A   Mostly Cloudy